Powrót do katalogu

KUIPER-00489

AktywnyŁącznośćLEO
NORAD 68880·PAYLOAD·🇺🇸 United States

Wystrzelony Apr 28, 2026 z Cape Canaveral Space Force Station

Loading…

Następne Przeloty (najbliższe 24 godziny)

TLE

ŚwieżeSource: CelesTrak SupGP

Epoka: Sep 14, 2026, 20:57 UTC

1 68880C 26095S   26257.87304398 -.00001227  00000+0 -16054-3 0  2575
2 68880  51.8959 191.5620 0001281  75.0900 125.0051 14.79937816    16

Śledź KUIPER-00489 w czasie rzeczywistym z AllMySat

Download on the App Store